HAWK-7C

Last updated on Tue Sep 22 2026 00:03:52 GMT+0000 (Coordinated Universal Time)

1 56200U 23054Y 26264.58516264 .00001613 00000+0 61279-4 0 9993 2 56200 97.2541 148.4841 0003974 68.3054 291.8609 15.28213632191742
UTC large
Height (km)
Speed (km/s)
/
Latitude / Longitude
Inclination (degrees)
Orbital Period (minutes)
Azimuth
Elevation
Range (km)
Doppler Factor

Next 0 passes for location: London (51.5072 / 0.1276)

No passes found over London.
HAWK-7C